Location: Oakley
(37.9974°N, 121.7125°W)
Time: 02:55:39
(UTC+00:00)

Hubble Space Telescope - Pass Details

Date: 25 April 2026
Orbit: 473 x 476 km, 28.5° (Epoch: 11 May)

Event Time Altitude Azimuth Distance (km) Brightness Sun altitude
Rises 03:18:06 0° 220° (SW) 2,503 4.4 -5.8°
Reaches altitude 10° 03:21:27 10° 188° (S) 1,629 3.1 -6.4°
Maximum altitude 03:22:56 12° 165° (SSE) 1,509 2.7 -6.7°
Drops below altitude 10° 03:24:25 10° 141° (SE) 1,631 2.7 -6.9°
Enters shadow 03:25:15 - 131° (SE) 1,787 2.8 -7.1°
